Regional Weather Roundup
Issued by NWS

Home | Current Version | Previous Version | Graphics & Text | Print | Product List | Glossary On
Versions: 1 2 3 4 5 6 7 8 9 10 11 12 13 14 15 16 17 18 19 20 21 22 23 24 25 26 27 28 29 30 31 32 33 34 35 36 37 38 39 40 41 42 43 44 45 46 47 48 49 50
000
ASUS43 KMPX 041210
RWRMN
WEATHER ROUNDUP FOR MINNESOTA
NATIONAL WEATHER SERVICE TWIN CITIES/CHANHASSEN MN
700 AM CDT FRI SEP 04 2015


NOTE: "FAIR" INDICATES FEW OR NO CLOUDS BELOW 12,000 FEET WITH NO
SIGNIFICANT WEATHER AND/OR OBSTRUCTIONS TO VISIBILITY. N/A MEANS
CURRENT SKY AND/OR WEATHER CONDITIONS ARE NOT AVAILABLE.

MNZ060>063-068>070-041300-
   Twin Cities Metro

CITY           SKY/WX    TMP DP  RH WIND       PRES   REMARKS
TWIN CITIES    MOCLDY    71  68  90 SE12      29.93R
6HR MIN TEMP:  71; 6HR MAX TEMP:  73;

ST PAUL        PTCLDY    70  66  87 SE8       29.93R
CRYSTAL        PTCLDY    72  67  84 SE9       29.91R
BLAINE         CLEAR     72  70  94 SE9       29.93R
LAKEVILLE      CLOUDY    70  70 100 SE6       29.93R FOG
EDEN PRAIRIE   CLOUDY    72  69  90 E9        29.91R
6HR MIN TEMP:  72; 6HR MAX TEMP:  75;

SOUTH ST PAUL  MOCLDY    70  67  89 SE3       29.93R
LAKE ELMO      FAIR      68  64  88 SE5       29.95R
$$
MNZ001>005-007-008-013>017-022>024-027-028-041300-
   Northwest Minnesota

CITY           SKY/WX    TMP DP  RH WIND       PRES   REMARKS
BEMIDJI        CLOUDY    66  64  91 SE10      29.90S
HALLOCK        CLOUDY    72  70  94 CALM      29.79R
ROSEAU         CLOUDY    72  64  78 SE13      29.83F
WARROAD        CLOUDY    70  66  88 SE8       29.86S
THIEF RVR FALL CLEAR     70  68  94 SE12      29.82F
CROOKSTON      CLEAR     72  70  94 SE12      29.79F
FOSSTON        CLOUDY    70  66  88 SE8       29.86S
DETROIT LAKES  CLOUDY    72  68  88 SE13G18   29.85F
MOORHEAD       PTCLDY    73  72  94 SE9       29.78R
PARK RAPIDS    CLOUDY    68  65  90 SE9       29.89F FOG
MAHNOMEN       CLOUDY    71  69  93 SE10      29.83F
$$
MNZ006-009>011-018-025>026-041300-
   North Central Minnesota

CITY           SKY/WX    TMP DP  RH WIND       PRES   REMARKS
BAUDETTE       CLOUDY    63  59  87 SE9       29.89F
FLAG ISLAND    CLOUDY    66  63  88 S10       29.88R
INTL FALLS     MOCLDY    58  57  97 SE6       29.94S
6HR MIN TEMP:  55; 6HR MAX TEMP:  61;

WASKISH        MOCLDY    61  59  94 NE3       29.90S
BIG FORK       MOCLDY    64  61  88 S6        29.95R
LONGVILLE      PTCLDY    64  63  94 SE6       29.93S
GRAND RAPIDS     N/A     63  57  82 SE10G16   29.96S
CRANE LAKE     CLEAR     54  54 100 SE2       29.99S
ORR            PTCLDY    61  57  88 SE5       29.95S
COOK           PTCLDY    61  59  94 E3        29.98S
WALKER         CLOUDY    67  65  93 SE6       29.91S
$$
MNZ012-019>021-037-041300-
   Northeast Minnesota

CITY           SKY/WX    TMP DP  RH WIND       PRES   REMARKS
DULUTH         MOCLDY    60  59  96 E10       30.00S FOG
6HR MIN TEMP:  56; 6HR MAX TEMP:  60;

ELY            PTCLDY    50  48  93 CALM      30.01F
HIBBING        CLOUDY    62  60  93 SE6       29.99R
EVELETH        CLOUDY    59  59 100 CALM      30.01R
DULUTH HARBOR  CLOUDY    61  57  88 E12       30.01S
TWO HARBORS    CLEAR     63  57  82 NE5       30.00S
SILVER BAY     CLEAR     54  52  94 CALM      30.01S
GRAND MARAIS     N/A     60  57  89 NE5       30.04R
G MARAIS ARPRT CLEAR     54  52  94 CALM      30.08R FOG
$$
MNZ029>031-032-039>041-046>048-054>057-064-041300-
   West Central Minnesota

CITY           SKY/WX    TMP DP  RH WIND       PRES   REMARKS
FERGUS FALLS   CLEAR     73  73 100 SE13      29.80R
WHEATON        CLEAR     70  70 100 E12       29.79S
MORRIS         CLEAR     73  72  94 SE12      29.81R
ALEXANDRIA     CLOUDY    72  71  97 SE13      29.87S
ELBOW LAKE     FAIR      73  71  95 SE10      29.82R
WADENA         CLOUDY    70  68  94 SE9       29.87F FOG
GLENWOOD       MOCLDY    72  72 100 E10       29.87S FOG
APPLETON       CLEAR     73  70  88 SE9       29.80S
BENSON         CLEAR     73  70  88 S8        29.83R
ORTONVILLE     CLEAR     72  70  94 SE9       29.79S
MADISON        CLEAR     72  70  94 SE7       29.80S
WILLMAR        FAIR      73  72  94 SE10      29.87R
$$
MNZ033>034-036-042>043-049>051-058-059-041300-
   Central Minnesota

CITY           SKY/WX    TMP DP  RH WIND       PRES   REMARKS
ST CLOUD       CLOUDY    69  68  96 SE6       29.90S
6HR MIN TEMP:  68; 6HR MAX TEMP:  71;

SAUK CENTRE    CLOUDY    72  70  95 SE8       29.88S FOG
PAYNESVILLE    CLEAR     72  71  98 E9        29.88S
AITKIN         PTCLDY    66  61  82 E5        29.93S
PINE RIVER     CLOUDY    66  66 100 E7        29.95S
BRAINERD       PTCLDY    67  64  90 VRB3      29.92R
STAPLES        CLOUDY    70  66  88 SE5       29.89S
LONG PRAIRIE   CLOUDY    70  68  94 E8        29.90R
LITTLE FALLS   CLOUDY    68  64  88 SE7       29.91R
LITCHFIELD     CLEAR     73  73 100 SE7       29.89S FOG
BUFFALO        PTCLDY    69  67  91 E5        29.91S
MAPLE LAKE     PTCLDY    71  70  96 E5        29.91S FOG
$$
MNZ037-044-045-052-053-041300-
   East Central Minnesota

CITY           SKY/WX    TMP DP  RH WIND       PRES   REMARKS
PRINCETON      PTCLDY    70  66  88 E5        29.92S
MORA           CLEAR     64  63  94 CALM      29.96S
CAMBRIDGE      CLEAR     70  61  73 SE5       29.92R
RUSH CITY      PTCLDY    68  64  86 SE3       29.94S
MOOSE LAKE     CLOUDY    59  57  94 NE3       29.96S
HINCKLEY       FAIR      66  64  94 E5        29.96R
CLOQUET        CLOUDY    61  57  88 E6        29.99R
MCGREGOR       MOCLDY    63  61  94 SE8       29.96R
$$
MNZ071>073-080-081-089-090-097-098-041300-
   Southwest Minnesota

CITY           SKY/WX    TMP DP  RH WIND       PRES   REMARKS
MONTEVIDEO     FAIR      72  72 100 S8        29.83S
GRANITE FALLS  CLEAR     72  69  92 SE8       29.83F
CANBY          PTCLDY    69  67  95 SE3       29.82R
MARSHALL       CLEAR     72  64  78 S13       29.84R
REDWOOD FALLS  CLEAR     71  69  93 SE8       29.85R
OLIVIA         CLEAR     70  66  88 SE7       29.86R
PIPESTONE      MOCLDY    72  66  83 S9        29.86R
WINDOM         CLEAR     72  66  83 SE8       29.88S
WORTHINGTON    CLEAR     70  64  83 S13       29.88R
JACKSON        CLEAR     72  68  88 S9        29.90R
TRACY          CLEAR     72  69  90 S13G18    29.84F
SLAYTON        CLEAR     68  68 100 CALM      29.88R
$$
MNZ065>067-074>077-082>085-091>093-041300-
   South Central Minnesota

CITY           SKY/WX    TMP DP  RH WIND       PRES   REMARKS
MANKATO        CLEAR     72  70  94 SE9       29.90R
NEW ULM        CLEAR     72  70  94 SE7       29.87S
ST JAMES       CLEAR     72  70  94 SE7       29.89R
FAIRMONT       CLEAR     70  45  40 S6        29.90R
GLENCOE        CLEAR     72  72  99 E3        29.89S FOG
FARIBAULT      CLEAR     72  70  94 E6        29.93R
OWATONNA       CLEAR     72  68  88 E12       29.93R
WASECA         CLEAR     70  68  94 SE6       29.93R
ALBERT LEA     PTCLDY    72  70  94 SE5       29.93S
$$
MNZ078>079-086>088-094>096-041300-
   Southeast Minnesota

CITY           SKY/WX    TMP DP  RH WIND       PRES   REMARKS
ROCHESTER      FOG       70  70 100 SE9       29.97R VSB 1/4
6HR MIN TEMP:  70; 6HR MAX TEMP:  74;

RED WING       CLEAR     72  66  83 SE10      29.94R
STANTON        CLOUDY    72  69  91 CALM      29.92S FOG
DODGE CENTER   FOG       72  70  94 SE6       29.96R VSB 1/2
WINONA         PTCLDY    70  64  83 SE6       29.97S
AUSTIN         CLEAR     70  68  94 SE5       29.95R
PRESTON        CLOUDY    69  66  93 SE8       29.99R FOG
$$
ABBREVIATIONS USED IN REMARKS
   TC - TEMPERATURES IN CELSIUS
  WCI - WIND CHILL INDEX
   HX - HEAT INDEX
  VSB - VISIBILITY
$$



USA.gov is the U.S. government's official web portal to all federal, state and local government web resources and services.